When you browse on this site, cookies collect data to enhance your experience and personalize the content and advertising you see.
Visit our Privacy Policy to learn more. By continuing to use the site, you agree to this use of cookies and data.
  • In United Kingdom
  • List of Countries
  • For 7 days
  • Water Temperature
  • Satellite Maps
  • Weather Map
  • Weather Widgets
  • user-avatar
    Login

    Hourly Weather Jewłach

    Today, 23 January, Wednesday

    Time Temperature Precipitation Wind Pressure Humidity
    00:00 +7°C° 0 mm 3 mps 763 mmHg 39%
    01:00 +7°C° 0 mm 2 mps 763 mmHg 40%
    02:00 +6°C° 0 mm 2 mps 763 mmHg 41%
    03:00 +6°C° 0 mm 2 mps 763 mmHg 42%
    04:00 +6°C° 0 mm 2 mps 764 mmHg 44%
    05:00 +6°C° 0 mm 1 mps 764 mmHg 46%
    06:00 +6°C° 0 mm 1 mps 764 mmHg 48%
    07:00 +6°C° 0 mm 1 mps 764 mmHg 48%
    08:00 +6°C° 0 mm 2 mps 765 mmHg 48%
    09:00 +7°C° 0 mm 3 mps 765 mmHg 48%
    10:00 +8°C° 0 mm 3 mps 765 mmHg 47%
    11:00 +9°C° 0 mm 3 mps 765 mmHg 46%
    12:00 +10°C° 0 mm 4 mps 765 mmHg 44%
    13:00 +10°C° 0 mm 4 mps 764 mmHg 45%
    14:00 +11°C° 0 mm 3 mps 764 mmHg 46%
    15:00 +11°C° 0 mm 3 mps 764 mmHg 48%
    16:00 +10°C° 0 mm 2 mps 765 mmHg 52%
    17:00 +9°C° 0 mm 2 mps 765 mmHg 57%
    18:00 +10°C° 0 mm 1 mps 765 mmHg 61%
    19:00 +9°C° 0 mm 1 mps 766 mmHg 62%
    20:00 +9°C° 0 mm 1 mps 766 mmHg 64%
    21:00 +8°C° 0 mm 1 mps 766 mmHg 65%
    22:00 +8°C° 0 mm 1 mps 766 mmHg 66%
    23:00 +8°C° 0 mm 1 mps 766 mmHg 67%

    Tomorrow, 24 January, Thursday

    Time Temperature Precipitation Wind Pressure Humidity
    00:00 +7°C° 0 mm 0 mps 766 mmHg 69%
    01:00 +7°C° 0 mm 1 mps 766 mmHg 70%
    02:00 +7°C° 0 mm 1 mps 765 mmHg 71%
    03:00 +7°C° 0 mm 1 mps 765 mmHg 72%
    04:00 +5°C° 0 mm 2 mps 765 mmHg 70%
    05:00 +5°C° 0 mm 2 mps 765 mmHg 68%
    06:00 +4°C° 0 mm 2 mps 765 mmHg 65%
    07:00 +5°C° 0 mm 2 mps 765 mmHg 59%
    08:00 +5°C° 0 mm 2 mps 765 mmHg 52%
    09:00 +6°C° 0 mm 2 mps 764 mmHg 45%
    10:00 +7°C° 0 mm 2 mps 764 mmHg 40%
    11:00 +8°C° 0 mm 2 mps 763 mmHg 35%
    12:00 +10°C° 0 mm 2 mps 763 mmHg 30%
    13:00 +10°C° 0 mm 2 mps 762 mmHg 30%
    14:00 +12°C° 0 mm 2 mps 762 mmHg 29%
    15:00 +12°C° 0 mm 2 mps 762 mmHg 29%
    16:00 +10°C° 0 mm 2 mps 762 mmHg 33%
    17:00 +9°C° 0 mm 2 mps 762 mmHg 36%
    18:00 +9°C° 0 mm 1 mps 762 mmHg 40%
    19:00 +9°C° 0 mm 1 mps 762 mmHg 42%
    20:00 +9°C° 0 mm 1 mps 762 mmHg 44%
    21:00 +8°C° 0 mm 1 mps 762 mmHg 46%
    22:00 +8°C° 0 mm 1 mps 761 mmHg 46%
    23:00 +8°C° 0 mm 1 mps 761 mmHg 47%

    Day after tomorrow, 25 January, Friday

    Time Temperature Precipitation Wind Pressure Humidity
    00:00 +8°C° 0 mm 1 mps 761 mmHg 47%
    01:00 +6°C° 0 mm 2 mps 761 mmHg 46%
    02:00 +6°C° 0 mm 2 mps 760 mmHg 45%
    03:00 +5°C° 0 mm 3 mps 760 mmHg 44%
    04:00 +5°C° 0 mm 3 mps 760 mmHg 43%
    05:00 +5°C° 0 mm 4 mps 759 mmHg 41%
    06:00 +5°C° 0 mm 4 mps 759 mmHg 40%
    07:00 +6°C° 0 mm 5 mps 759 mmHg 39%
    08:00 +7°C° 0 mm 5 mps 759 mmHg 37%
    09:00 +8°C° 0 mm 6 mps 759 mmHg 35%
    10:00 +9°C° 0 mm 6 mps 759 mmHg 32%
    11:00 +11°C° 0 mm 6 mps 758 mmHg 30%
    12:00 +14°C° 0 mm 7 mps 758 mmHg 27%
    13:00 +14°C° 0 mm 7 mps 758 mmHg 27%
    14:00 +14°C° 0 mm 6 mps 758 mmHg 27%
    15:00 +14°C° 0 mm 6 mps 758 mmHg 28%
    16:00 +13°C° 0 mm 5 mps 758 mmHg 30%
    17:00 +12°C° 0 mm 5 mps 759 mmHg 33%
    18:00 +11°C° 0 mm 4 mps 759 mmHg 35%
    19:00 +11°C° 0 mm 4 mps 760 mmHg 37%
    20:00 +10°C° 0 mm 3 mps 760 mmHg 38%
    21:00 +10°C° 0 mm 3 mps 760 mmHg 40%
    22:00 +9°C° 0 mm 3 mps 761 mmHg 40%
    23:00 +9°C° 0 mm 2 mps 761 mmHg 41%

    26 January, Saturday

    Time Temperature Precipitation Wind Pressure Humidity
    00:00 +9°C° 0 mm 2 mps 761 mmHg 42%
    01:00 +8°C° 0 mm 2 mps 761 mmHg 42%
    02:00 +9°C° 0 mm 1 mps 761 mmHg 43%
    03:00 +9°C° 0 mm 1 mps 762 mmHg 43%
    04:00 +8°C° 0 mm 1 mps 762 mmHg 44%
    05:00 +8°C° 0 mm 1 mps 762 mmHg 45%
    06:00 +7°C° 0 mm 0 mps 762 mmHg 46%
    07:00 +8°C° 0 mm 1 mps 762 mmHg 44%
    08:00 +9°C° 0 mm 1 mps 762 mmHg 41%
    09:00 +10°C° 0 mm 1 mps 762 mmHg 39%
    10:00 +11°C° 0 mm 1 mps 762 mmHg 37%
    11:00 +12°C° 0 mm 1 mps 761 mmHg 35%
    12:00 +13°C° 0 mm 1 mps 761 mmHg 32%
    13:00 +13°C° 0 mm 1 mps 760 mmHg 32%
    14:00 +14°C° 0 mm 1 mps 760 mmHg 32%
    15:00 +14°C° 0 mm 1 mps 760 mmHg 31%
    16:00 +13°C° 0 mm 1 mps 760 mmHg 35%
    17:00 +12°C° 0 mm 1 mps 760 mmHg 38%
    18:00 +10°C° 0 mm 2 mps 760 mmHg 42%
    19:00 +10°C° 0 mm 2 mps 760 mmHg 42%
    20:00 +9°C° 0 mm 2 mps 760 mmHg 42%
    21:00 +9°C° 0 mm 2 mps 760 mmHg 42%
    22:00 +9°C° 0 mm 2 mps 760 mmHg 40%
    23:00 +9°C° 0 mm 2 mps 760 mmHg 38%

    27 January, Sunday

    Time Temperature Precipitation Wind Pressure Humidity
    00:00 +9°C° 0 mm 2 mps 760 mmHg 36%
    01:00 +8°C° 0 mm 3 mps 760 mmHg 37%
    02:00 +8°C° 0 mm 3 mps 759 mmHg 38%
    03:00 +8°C° 0 mm 3 mps 759 mmHg 38%
    04:00 +8°C° 0 mm 3 mps 759 mmHg 40%
    05:00 +7°C° 0 mm 4 mps 759 mmHg 42%
    06:00 +6°C° 0 mm 4 mps 759 mmHg 44%
    07:00 +7°C° 0 mm 4 mps 759 mmHg 43%
    08:00 +8°C° 0 mm 4 mps 758 mmHg 41%
    09:00 +10°C° 0 mm 4 mps 758 mmHg 40%
    10:00 +11°C° 0 mm 4 mps 758 mmHg 37%
    11:00 +12°C° 0 mm 4 mps 757 mmHg 35%
    12:00 +13°C° 0 mm 4 mps 756 mmHg 33%
    13:00 +14°C° 0 mm 4 mps 756 mmHg 32%
    14:00 +15°C° 0 mm 4 mps 755 mmHg 31%
    15:00 +16°C° 0 mm 3 mps 755 mmHg 30%
    16:00 +14°C° 0 mm 3 mps 755 mmHg 33%
    17:00 +13°C° 0 mm 3 mps 755 mmHg 36%
    18:00 +12°C° 0 mm 3 mps 755 mmHg 40%
    19:00 +11°C° 0 mm 3 mps 755 mmHg 41%
    20:00 +11°C° 0 mm 3 mps 755 mmHg 43%
    21:00 +11°C° 0 mm 3 mps 755 mmHg 44%
    22:00 +10°C° 0 mm 3 mps 755 mmHg 45%
    23:00 +10°C° 0 mm 3 mps 755 mmHg 46%

    28 January, Monday

    Time Temperature Precipitation Wind Pressure Humidity
    00:00 +10°C° 0 mm 3 mps 755 mmHg 47%
    01:00 +10°C° 0 mm 3 mps 755 mmHg 47%
    02:00 +10°C° 0 mm 4 mps 755 mmHg 47%
    03:00 +8°C° 0 mm 4 mps 755 mmHg 48%
    04:00 +8°C° 0 mm 4 mps 755 mmHg 48%
    05:00 +8°C° 0 mm 4 mps 756 mmHg 48%
    06:00 +8°C° 0 mm 4 mps 756 mmHg 49%
    07:00 +9°C° 0 mm 5 mps 756 mmHg 47%
    08:00 +10°C° 0 mm 5 mps 756 mmHg 45%
    09:00 +12°C° 0 mm 5 mps 756 mmHg 44%
    10:00 +13°C° 0 mm 5 mps 756 mmHg 39%
    11:00 +15°C° 0 mm 5 mps 755 mmHg 34%
    12:00 +16°C° 0 mm 5 mps 755 mmHg 30%
    13:00 +16°C° 0 mm 5 mps 755 mmHg 30%
    14:00 +16°C° 0 mm 6 mps 755 mmHg 31%
    15:00 +16°C° 0 mm 6 mps 754 mmHg 31%
    16:00 +15°C° 0 mm 5 mps 755 mmHg 35%
    17:00 +14°C° 0 mm 4 mps 755 mmHg 38%
    18:00 +13°C° 0 mm 3 mps 755 mmHg 41%
    19:00 +13°C° 0 mm 3 mps 756 mmHg 44%
    20:00 +13°C° 0 mm 2 mps 756 mmHg 47%
    21:00 +12°C° 0 mm 2 mps 756 mmHg 50%
    22:00 +12°C° 0 mm 1 mps 756 mmHg 56%
    23:00 +11°C° 0 mm 1 mps 757 mmHg 62%
    Show more